Regional Weather Roundup
Issued by NWS

Home | Current Version | Previous Version | Text Only | Print | Product List | Glossary On
Versions: 1 2 3 4 5 6 7 8 9 10 11 12 13 14 15 16 17 18 19 20 21 22 23 24 25 26 27 28 29 30 31 32 33 34 35 36 37 38 39 40 41 42 43 44 45 46 47 48 49 50
000
ASPQ40 PGUM 251812
RWRPQ
WEATHER ROUNDUP FOR THE MARIANAS AND MICRONESIA
NATIONAL WEATHER SERVICE TIYAN GU
400 AM CHST SUN MAR 26 2017

GUZ001>004-251900-
MARIANA ISLANDS-

CITY           SKY/WX    TMP DP  RH WIND       PRES   REMARKS
GUAM AIRPORT   CLEAR     77  73  88 NE7       29.93F
ANDERSEN AFB   PTCLDY    77  72  83 E8        29.95S
ROTA AIRPORT   NOT AVBL
TINIAN AP      NOT AVBL
SAIPAN AP      PTCLDY    75  72  88 E5        29.94F

$$

PMZ161-251900-
REPUBLIC OF PALAU-

CITY           SKY/WX    TMP DP  RH WIND       PRES   REMARKS
KOROR AP       MOCLDY    81  75  83 NE8       29.83F
KOROR WSO      CLOUDY    81  75  83 NE6       29.84F

$$

PMZ171>174-251900-
FEDERATED STATES OF MICRONESIA-

CITY           SKY/WX    TMP DP  RH WIND       PRES   REMARKS
YAP AIRPORT    CLOUDY    79  75  89 E13       29.87R
CHUUK AP       CLOUDY    82  77  83 NE8       29.81S HX  91
POHNPEI AP     NOT AVBL
POHNPEI WSO    MOCLDY    82  73  74 E14       29.87
KOSRAE AP      NOT AVBL

$$

PMZ181-251900-
REPUBLIC OF THE MARSHALL ISLANDS-

CITY           SKY/WX    TMP DP  RH WIND       PRES   REMARKS
KWAJALEIN AP   PTCLDY    81  73  78 E15       29.86S
MAJURO AP      MOCLDY    81  73  78 E12       29.82
MAJURO WSO     MOCLDY    82  72  69 NE10      29.84R

$$




USA.gov is the U.S. government's official web portal to all federal, state and local government web resources and services.